Showing default

SKYSAT C5, 41772

Orbit data source: Space-Track

SKYSAT C5, 41772 is a payload satellite owned by Terra Bella (US) in SSO that was launched on Fri, 16 Sep 2016 UTC via a VEGA launch vehicle from the French Guiana (FRGUI). Payload-class satellites include a variety of spacecraft equipped with specific instruments for various scientific and technological missions. These include communications satellites like Starlink; space stations such as the ISS; scientific satellites like the Hubble; Earth observation satellites from companies like Planet Labs, Umbra, and HawkEye 360; GPS; miniature CubeSats for education and research; and military/defense satellites.

Loading next visibility...
Identifier
41772, 2016-058C
Orbit
SSO
Country
Flag of USUS
Related business
Manufacturer
SS/Loral (MDA)
Mission
Operational Commercial Imaging
Bus & Motor
SKYSAT-GEN2, Unknown motor
Mass
110 kg wet, 110 kg dry
Launch date (UTC)
2016-09-16 (9 years ago)
Launch vehicle
VEGA
Launch site
French Guiana (FRGUI)
Object type
Payload
Rocket body
Debris
Shape & HBR
Box, 0.6 m
Radar Cross Section
0.888 m², Medium (>0.1 m² and < 1m²)

Expand to show TLE details & history
Last TLE update: 10 hours ago

TLE from 10 hours ago
0 SKYSAT C5
1 41772U 16058C   25258.08448429  .00009147  00000-0  26247-3 0  9997
2 41772  97.0914 305.1893 0004216  75.3907 284.7805 15.36068743501559
Epoch: 2025-09-15T02:01Z
TLE epoch observation values (Epoch: 2025-09-15T02:01:39.442Z)
Latitude
-0.00003°
Longitude
-79.51925°
Altitude
460.135 km
Speed
7.637 km/s
True Right ascension
20h 20m 45s
True Declination
0° 00' 00"
Sunlit
Object was in full shadow at epoch
Visualization orbit readout
Latitude
Unknown
Longitude
Unknown
Altitude
Unknown
Speed
Unknown
Apparent Right ascension
Unknown
Apparent Declination
Unknown
Sunlit
N/A
Visualization observer readout
Local Sidereal Time
05:01:21
Azimuth
Unknown
Elevation
Unknown
Doppler factor
Unknown
Orbital elements
Apogee altitude
457.56 km
Perigee altitude
451.798 km
Semi-major axis
6,832.816 km
Eccentricity
0.00042
Inclination
97.0914°
RAAN
305.1893°
Arg. of periapsis
75.3907°
True anomaly
284.73378°
Mean anomaly
284.7805°
Eccentric anomaly
284.75714°
Mean motion
3.84276 °/min
Orbital period
93.68 mins
BSTAR
0.00026247
Loading maneuver chart data...
Computing Atmospheric mass density...
Loading historical data...
Loading historical data...
Loading historical data...
Loading historical data...
Loading historical data...
Loading historical data...
Loading historical data...

Documentation

Showing up to 5 results
|